Regional Weather Roundup
Issued by NWS

Home | Current Version | Previous Version | Graphics & Text | Print | Product List | Glossary On
Versions: 1 2 3 4 5 6 7 8 9 10 11 12 13 14 15 16 17 18 19 20 21 22 23 24 25 26 27 28 29 30 31 32 33 34 35 36 37 38 39 40 41 42 43 44 45 46 47 48 49 50
869
ASUS43 KLMK 290002
RWRKY
KENTUCKY REGIONAL WEATHER ROUNDUP
NATIONAL WEATHER SERVICE LOUISVILLE KY
800 PM EDT SAT MAY 28 2016

NOTE "FAIR" INDICATES FEW OR NO CLOUDS BELOW 12,000 FEET
WITH NO SIGNIFICANT WEATHER AND/OR OBSTRUCTIONS TO VISIBILITY.

KYZ001>023-026-027-061>063-070>075-290100-
WESTERN AND SOUTH CENTRAL KENTUCKY

CITY           SKY/WX    TMP DP  RH WIND       PRES   REMARKS
PADUCAH        CLOUDY    81  66  60 S5        30.00S
HENDERSON      SUNNY     81  64  57 S8        30.01S
OWENSBORO      CLOUDY    80  69  69 S13       30.05R
HOPKINSVILLE   HVY RAIN  79  68  69 SW10G17   30.05R
BOWLING GREEN  CLOUDY    77  66  68 S5        30.07R
GLASGOW        NOT AVBL
$$

KYZ024-025-028>034-038-045-046-053-290100-
NORTH CENTRAL KENTUCKY

CITY           SKY/WX    TMP DP  RH WIND       PRES   REMARKS
LOUISVILLE/SDF CLOUDY    75  63  66 S7        30.07R
LOUISVILLE/LOU PTCLDY    77  61  57 S5        30.07S
FORT KNOX      CLOUDY    72  66  83 S5        30.06S
$$

KYZ035>037-039>044-047>052-055>060-089>105-290100-
NORTHEAST KENTUCKY

CITY           SKY/WX    TMP DP  RH WIND       PRES   REMARKS
LEXINGTON      CLOUDY    78  60  53 W6        30.10R
COVINGTON      MOCLDY    78  62  57 SW7       30.09R
FRANKFORT      MOCLDY    77  61  57 SW6       30.08S
$$

KYZ054-064>069-076>088-106>120-290100-
SOUTHEAST KENTUCKY

CITY           SKY/WX    TMP DP  RH WIND       PRES   REMARKS
JACKSON        CLEAR     79  62  56 CALM      30.13R
LONDON         CLEAR     81  62  52 E3        30.11R
SOMERSET       NOT AVBL
MIDDLESBORO    CLEAR     79  66  64 CALM      30.12S
MONTICELLO     PTCLDY    78  66  66 W9        30.12R
$$





USA.gov is the U.S. government's official web portal to all federal, state and local government web resources and services.